KSAZ

Details ICAO KSAZ
Name STAPLES MUNI
Region United States
Timezone America/Chicago (UTC-5.0)
Plans Departing 0
Arriving 1
Stats Elevation 1,287 ft / 392 m (AMSL)
Location 46.380883° -94.806589°
Runways 1
Magnetic Variation 1.307° E
Sunrise 2018-05-21 10:40:41 UTC / 2018-05-21 05:40:41 Local
Sunset 2018-05-22 01:53:50 UTC / 2018-05-21 20:53:50 Local
Advertisement - Login to hide

Runways

ID Width Length Bearing (true) Bearing (mag) Surface Threshold Offset Overrun Length
14 75 ft / 23 m 3,303 ft / 1,007 m 144.84° 143.53° Asphalt 0 ft / 0 m 0 ft / 0 m
32 75 ft / 23 m 3,303 ft / 1,007 m 324.84° 323.53° Asphalt 0 ft / 0 m 0 ft / 0 m

Map

Weather


0- 5 10 15 20 25 30 35+ Temperature / ° C

Clouds and Precipitation
Forecast for 2018-05-21 18:00 UTC. Updated 6 hours ago

Ground ~20,000 ft ~40,000 ft Winds

METAR

KSAZ 212255Z AUTO 12005KT 10SM OVC023 14/03 A3002 RMK AO2

TAF

Not found

Frequencies

Recorded 118.32 MHz AWOS 3
Unicom 122.90 MHz CTAF
Warning: Do not use this data for real-world aviation or navigation. No guarantee of current accuracy is given.